H1 CPF 2 NER 2020 12 30 9 365 01 glonass137 H2 1705501 9137 42939 2020 12 30 0 0 0 2021 1 2 23 45 0 900 1 1 0 0 0 1 H9 10 0 59213 0.00000 0 11815652.243 -13273850.897 18305598.891 10 0 59213 900.00000 0 13777970.335 -14097668.599 16194479.431 10 0 59213 1800.00000 0 15421870.873 -14945077.034 13768934.517 10 0 59213 2700.00000 0 16723007.970 -15759733.136 11076003.652 10 0 59213 3600.00000 0 17669743.727 -16483418.153 8167939.138 10 0 59213 4500.00000 0 18263408.218 -17058609.643 5101195.182 10 0 59213 5400.00000 0 18518026.039 -17431043.084 1935332.953 10 0 59213 6300.00000 0 18459521.052 -17552154.507 -1268137.248 10 0 59213 7200.00000 0 18124433.227 -17381300.282 -4446953.868 10 0 59213 8100.00000 0 17558202.126 -16887659.321 -7539318.342 10 0 59213 9000.00000 0 16813090.007 -16051736.173 -10485101.468 10 0 59213 9900.00000 0 15945832.803 -14866400.379 -13227017.710 10 0 59213 10800.00000 0 15015118.831 -13337416.925 -15711743.972 10 0 59213 11700.00000 0 14079002.295 -11483444.206 -17890960.587 10 0 59213 12600.00000 0 13192361.323 -9335498.422 -19722293.834 10 0 59213 13500.00000 0 12404508.230 -6935905.814 -21170141.544 10 0 59213 14400.00000 0 11757053.030 -4336785.634 -22206365.773 10 0 59213 15300.00000 0 11282110.393 -1598126.505 -22810839.223 10 0 59213 16200.00000 0 11000925.502 1214464.277 -22971835.074 10 0 59213 17100.00000 0 10922976.499 4032245.431 -22686252.980 10 0 59213 18000.00000 0 11045591.035 6785957.379 -21959677.065 10 0 59213 18900.00000 0 11354092.722 9408460.815 -20806265.034 10 0 59213 19800.00000 0 11822470.972 11837288.985 -19248470.625 10 0 59213 20700.00000 0 12414545.647 14017008.097 -17316604.847 10 0 59213 21600.00000 0 13085577.117 15901288.375 -15048244.474 10 0 59213 22500.00000 0 13784253.510 17454600.323 -12487499.230 10 0 59213 23400.00000 0 14454971.009 18653466.292 -9684151.915 10 0 59213 24300.00000 0 15040310.622 19487216.206 -6692688.236 10 0 59213 25200.00000 0 15483606.530 19958217.001 -3571235.339 10 0 59213 26100.00000 0 15731497.167 20081567.411 -380429.967 10 0 59213 27000.00000 0 15736350.957 19884272.243 2817761.411 10 0 59213 27900.00000 0 15458463.875 19403932.125 5961247.272 10 0 59213 28800.00000 0 14867935.743 18687004.996 8989016.699 10 0 59213 29700.00000 0 13946145.748 17786713.520 11842322.388 10 0 59213 30600.00000 0 12686764.551 16760687.277 14465818.052 10 0 59213 31500.00000 0 11096260.013 15668439.476 16808628.144 10 0 59213 32400.00000 0 9193874.633 14568784.534 18825329.572 10 0 59213 33300.00000 0 7011074.954 13517305.036 20476826.920 10 0 59213 34200.00000 0 4590495.092 12563974.188 21731104.800 10 0 59213 35100.00000 0 1984417.454 11751033.074 22563843.566 10 0 59213 36000.00000 0 -747147.275 11111211.192 22958887.136 10 0 59213 36900.00000 0 -3538702.242 10666364.294 22908554.411 10 0 59213 37800.00000 0 -6321736.847 10426586.131 22413788.619 10 0 59213 38700.00000 0 -9027328.266 10389830.981 21484141.765 10 0 59213 39600.00000 0 -11588765.269 10542062.628 20137594.246 10 0 59213 40500.00000 0 -13944086.656 10857923.604 18400212.636 10 0 59213 41400.00000 0 -16038429.853 11301896.811 16305651.511 10 0 59213 42300.00000 0 -17826092.714 11829911.024 13894508.153 10 0 59213 43200.00000 0 -19272223.270 12391323.100 11213541.736 10 0 59213 44100.00000 0 -20354067.329 12931193.653 8314771.339 10 0 59213 45000.00000 0 -21061721.981 13392760.371 5254469.712 10 0 59213 45900.00000 0 -21398363.662 13720004.436 2092071.977 10 0 59213 46800.00000 0 -21379941.379 13860201.253 -1110979.640 10 0 59213 47700.00000 0 -21034348.155 13766346.994 -4292432.300 10 0 59213 48600.00000 0 -20400105.870 13399357.458 -7390436.564 10 0 59213 49500.00000 0 -19524619.300 12729945.147 -10344753.759 10 0 59213 50400.00000 0 -18462073.395 11740094.008 -13097932.426 10 0 59213 51300.00000 0 -17271063.025 10424068.247 -15596430.356 10 0 59213 52200.00000 0 -16012055.658 8788911.290 -17791659.893 10 0 59213 53100.00000 0 -14744794.411 6854412.632 -19640935.708 10 0 59213 54000.00000 0 -13525751.281 4652542.680 -21108306.528 10 0 59213 54900.00000 0 -12405737.972 2226378.142 -22165254.636 10 0 59213 55800.00000 0 -11427774.916 -371438.024 -22791249.702 10 0 59213 56700.00000 0 -10625307.943 -3080638.699 -22974146.477 10 0 59213 57600.00000 0 -10020847.185 -5835596.519 -22710418.907 10 0 59213 58500.00000 0 -9625084.989 -8567815.927 -22005226.391 10 0 59213 59400.00000 0 -9436529.233 -11208550.229 -20872311.132 10 0 59213 60300.00000 0 -9441666.813 -13691435.414 -19333728.637 10 0 59213 61200.00000 0 -9615649.687 -15955031.541 -17419416.699 10 0 59213 62100.00000 0 -9923473.891 -17945166.534 -15166611.149 10 0 59213 63000.00000 0 -10321601.144 -19616985.367 -12619119.689 10 0 59213 63900.00000 0 -10759954.010 -20936619.770 -9826467.925 10 0 59213 64800.00000 0 -11184199.814 -21882409.591 -6842934.236 10 0 59213 65700.00000 0 -11538226.262 -22445625.628 -3726492.339 10 0 59213 66600.00000 0 -11766703.627 -22630664.622 -537682.438 10 0 59213 67500.00000 0 -11817624.720 -22454709.384 2661566.813 10 0 59213 68400.00000 0 -11644714.792 -21946869.387 5809142.309 10 0 59213 69300.00000 0 -11209609.140 -21146839.014 8843952.647 10 0 59213 70200.00000 0 -10483706.021 -20103130.839 11707112.801 10 0 59213 71100.00000 0 -9449616.259 -18870958.977 14343084.285 10 0 59213 72000.00000 0 -8102148.016 -17509862.014 16700748.702 10 0 59213 72900.00000 0 -6448784.705 -16081165.653 18734394.226 10 0 59213 73800.00000 0 -4509635.222 -14645391.559 20404596.470 10 0 59213 74700.00000 0 -2316857.776 -13259720.797 21678977.224 10 0 59213 75600.00000 0 86419.738 -11975617.660 22532827.174 10 0 59213 76500.00000 0 2647638.982 -10836712.682 22949581.234 10 0 59213 77400.00000 0 5306747.222 -9877032.695 22921137.798 10 0 59213 78300.00000 0 7998451.117 -9119651.233 22448016.151 10 0 59213 79200.00000 0 10654696.017 -8575815.032 21539349.027 10 0 59213 80100.00000 0 13207269.105 -8244582.704 20212710.254 10 0 59213 81000.00000 0 15590419.482 -8112990.322 18493780.354 10 0 59213 81900.00000 0 17743387.358 -8156736.779 16415855.804 10 0 59213 82800.00000 0 19612737.838 -8341360.133 14019210.667 10 0 59213 83700.00000 0 21154402.671 -8623855.492 11350322.092 10 0 59213 84600.00000 0 22335345.099 -8954666.388 8460973.849 10 0 59213 85500.00000 0 23134778.271 -9279965.656 5407254.765 10 0 59214 0.00000 0 23544886.328 -9544129.400 2248471.189 10 0 59214 900.00000 0 23571017.595 -9692298.830 -954005.929 10 0 59214 1800.00000 0 23231342.406 -9672921.897 -4137935.624 10 0 59214 2700.00000 0 22555988.839 -9440164.859 -7241420.858 10 0 59214 3600.00000 0 21585694.118 -8956092.309 -10204116.701 10 0 59214 4500.00000 0 20370027.860 -8192521.162 -12968408.825 10 0 59214 5400.00000 0 18965262.717 -7132469.424 -15480538.740 10 0 59214 6300.00000 0 17431982.372 -5771137.058 -17691653.373 10 0 59214 7200.00000 0 15832527.984 -4116376.307 -19558758.089 10 0 59214 8100.00000 0 14228390.814 -2188630.334 -21045554.515 10 0 59214 9000.00000 0 12677660.802 -20341.472 -22123146.874 10 0 59214 9900.00000 0 11232638.305 2345147.180 -22770603.207 10 0 59214 10800.00000 0 9937709.035 4855151.945 -22975360.904 10 0 59214 11700.00000 0 8827570.931 7449606.274 -22733468.933 10 0 59214 12600.00000 0 7925886.761 10063335.024 -22049662.344 10 0 59214 13500.00000 0 7244418.167 12628551.221 -20937267.838 10 0 59214 14400.00000 0 6782676.574 15077471.895 -19417942.329 10 0 59214 15300.00000 0 6528104.622 17344944.469 -17521249.633 10 0 59214 16200.00000 0 6456779.468 19370974.746 -15284083.489 10 0 59214 17100.00000 0 6534607.295 21103051.607 -12749948.030 10 0 59214 18000.00000 0 6718957.745 22498171.766 -9968109.720 10 0 59214 18900.00000 0 6960668.394 23524480.632 -6992637.261 10 0 59214 19800.00000 0 7206333.800 24162461.223 -3881348.243 10 0 59214 20700.00000 0 7400781.621 24405622.059 -694683.340 10 0 59214 21600.00000 0 7489630.472 24260656.038 2505469.816 10 0 59214 22500.00000 0 7421820.742 23747064.470 5656979.855 10 0 59214 23400.00000 0 7152010.849 22896262.947 8698678.222 10 0 59214 24300.00000 0 6642737.213 21750207.415 11571545.429 10 0 59214 25200.00000 0 5866246.269 20359598.864 14219853.901 10 0 59214 26100.00000 0 4805920.812 18781742.487 16592245.288 10 0 59214 27000.00000 0 3457240.073 17078151.456 18642721.689 10 0 59214 27900.00000 0 1828232.474 15311995.693 20331532.116 10 0 59214 28800.00000 0 -60598.702 13545502.293 21625937.599 10 0 59214 29700.00000 0 -2176874.615 11837415.790 22500840.874 10 0 59214 30600.00000 0 -4477441.335 10240623.729 22939269.174 10 0 59214 31500.00000 0 -6909926.786 8800045.889 22932701.279 10 0 59214 32400.00000 0 -9414690.801 7550874.376 22481232.936 10 0 59214 33300.00000 0 -11927088.592 6517237.141 21593577.489 10 0 59214 34200.00000 0 -14379954.850 5711339.992 20286901.536 10 0 59214 35100.00000 0 -16706206.475 5133122.232 18586498.326 10 0 59214 36000.00000 0 -18841456.774 4770439.797 16525304.489 10 0 59214 36900.00000 0 -20726533.011 4599767.860 14143268.659 10 0 59214 37800.00000 0 -22309792.996 4587393.109 11486583.351 10 0 59214 38700.00000 0 -23549144.266 4691045.353 8606794.141 10 0 59214 39600.00000 0 -24413681.438 4861899.529 5559802.862 10 0 59214 40500.00000 0 -24884873.052 5046863.350 2404783.794 10 0 59214 41400.00000 0 -24957247.857 5191053.539 -796966.285 10 0 59214 42300.00000 0 -24638551.427 5240355.348 -3983221.519 10 0 59214 43200.00000 0 -23949366.266 5143956.266 -7092040.308 10 0 59214 44100.00000 0 -22922211.245 4856745.700 -10062974.372 10 0 59214 45000.00000 0 -21600158.207 4341477.980 -12838249.273 10 0 59214 45900.00000 0 -20035024.087 3570605.948 -15363892.808 10 0 59214 46800.00000 0 -18285214.745 2527706.353 -17590788.790 10 0 59214 47700.00000 0 -16413311.442 1208435.585 -19475635.267 10 0 59214 48600.00000 0 -14483501.548 -379025.809 -20981788.376 10 0 59214 49500.00000 0 -12558961.409 -2214059.843 -22079975.466 10 0 59214 50400.00000 0 -10699301.180 -4264226.500 -22748863.701 10 0 59214 51300.00000 0 -8958178.433 -6486383.173 -22975473.419 10 0 59214 52200.00000 0 -7381180.039 -8828262.281 -22755428.504 10 0 59214 53100.00000 0 -6004060.414 -11230441.898 -22093039.163 10 0 59214 54000.00000 0 -4851408.974 -13628627.918 -21001215.747 10 0 59214 54900.00000 0 -3935801.591 -15956153.109 -19501215.417 10 0 59214 55800.00000 0 -3257470.469 -18146589.277 -17622226.587 10 0 59214 56700.00000 0 -2804504.987 -20136363.953 -15400799.245 10 0 59214 57600.00000 0 -2553573.812 -21867272.754 -12880132.118 10 0 59214 58500.00000 0 -2471136.614 -23288782.730 -10109230.551 10 0 59214 59400.00000 0 -2515093.116 -24360030.727 -7141951.504 10 0 59214 60300.00000 0 -2636798.770 -25051433.526 -4035954.312 10 0 59214 61200.00000 0 -2783360.969 -25345842.679 -851577.923 10 0 59214 62100.00000 0 -2900117.795 -25239196.182 2349333.281 10 0 59214 63000.00000 0 -2933193.776 -24740640.212 5504631.951 10 0 59214 63900.00000 0 -2832023.913 -23872116.428 8553074.718 10 0 59214 64800.00000 0 -2551738.730 -22667432.817 11435509.999 10 0 59214 65700.00000 0 -2055309.122 -21170857.573 14096023.516 10 0 59214 66600.00000 0 -1315360.053 -19435295.466 16483019.306 10 0 59214 67500.00000 0 -315576.204 -17520123.326 18550215.632 10 0 59214 68400.00000 0 948360.132 -15488775.253 20257536.979 10 0 59214 69300.00000 0 2468338.942 -13406178.320 21571885.455 10 0 59214 70200.00000 0 4223919.050 -11336145.356 22467777.405 10 0 59214 71100.00000 0 6182948.363 -9338832.868 22927833.615 10 0 59214 72000.00000 0 8302683.025 -7468369.269 22943114.163 10 0 59214 72900.00000 0 10531360.155 -5770751.213 22513291.829 10 0 59214 73800.00000 0 12810160.044 -4282094.671 21646660.815 10 0 59214 74700.00000 0 15075477.428 -3027312.709 20359980.414 10 0 59214 75600.00000 0 17261408.574 -2019274.182 18678156.216 10 0 59214 76500.00000 0 19302351.711 -1258477.689 16633764.309 10 0 59214 77400.00000 0 21135613.258 -733253.820 14266426.875 10 0 59214 78300.00000 0 22703911.664 -420486.647 11622050.435 10 0 59214 79200.00000 0 23957674.585 -286823.753 8751940.642 10 0 59214 80100.00000 0 24857033.207 -290323.483 5711810.260 10 0 59214 81000.00000 0 25373429.949 -382469.595 2560699.142 10 0 59214 81900.00000 0 25490771.662 -510467.767 -640172.958 10 0 59214 82800.00000 0 25206079.380 -619726.305 -3828598.173 10 0 59214 83700.00000 0 24529606.792 -656415.361 -6942593.396 10 0 59214 84600.00000 0 23484421.986 -569995.439 -9921610.067 10 0 59214 85500.00000 0 22105469.734 -315607.161 -12707716.620 10 0 59215 0.00000 0 20438153.569 143779.918 -15246729.898 10 0 59215 900.00000 0 18536496.981 835551.931 -17489273.291 10 0 59215 1800.00000 0 16460961.399 1776045.336 -19391739.851 10 0 59215 2700.00000 0 14276012.134 2969614.255 -20917142.342 10 0 59215 3600.00000 0 12047534.512 4408208.729 -22035833.125 10 0 59215 4500.00000 0 9840208.417 6071484.203 -22726080.130 10 0 59215 5400.00000 0 7714950.777 7927438.044 -22974488.030 10 0 59215 6300.00000 0 5726532.504 9933547.588 -22776256.708 10 0 59215 7200.00000 0 3921468.939 12038362.756 -22135272.285 10 0 59215 8100.00000 0 2336271.056 14183487.427 -21064029.159 10 0 59215 9000.00000 0 996129.477 16305867.329 -19583384.721 10 0 59215 9900.00000 0 -85914.822 18340289.247 -17722151.554 10 0 59215 10800.00000 0 -909279.798 20221987.517 -15516535.038 10 0 59215 11700.00000 0 -1485620.081 21889249.081 -13009427.196 10 0 59215 12600.00000 0 -1838083.952 23285908.307 -10249570.532 10 0 59215 13500.00000 0 -2000082.266 24363627.284 -7290608.135 10 0 59215 14400.00000 0 -2013622.580 25083866.245 -4190038.585 10 0 59215 15300.00000 0 -1927279.957 25419461.644 -1008096.300 10 0 59215 16200.00000 0 -1793891.319 25355745.949 2193420.640 10 0 59215 17100.00000 0 -1668071.691 24891162.433 5352352.116 10 0 59215 18000.00000 0 -1603658.159 24037349.513 8407383.238 10 0 59215 18900.00000 0 -1651190.216 22818691.479 11299233.613 10 0 59215 19800.00000 0 -1855533.476 21271354.753 13971805.467 10 0 59215 20700.00000 0 -2253747.471 19441850.414 16373268.299 10 0 59215 21600.00000 0 -2873287.834 17385183.231 18457059.419 10 0 59215 22500.00000 0 -3730618.966 15162664.590 20182781.446 10 0 59215 23400.00000 0 -4830295.977 12839480.402 21516979.953 10 0 59215 24300.00000 0 -6164555.059 10482114.932 22433786.973 10 0 59215 25200.00000 0 -7713430.259 8155737.153 22915418.562 10 0 59215 26100.00000 0 -9445392.699 5921657.580 22952517.386 10 0 59215 27000.00000 0 -11318486.702 3834960.375 22544334.073 10 0 59215 27900.00000 0 -13281916.656 1942408.052 21698743.968 10 0 59215 28800.00000 0 -15278019.685 280704.996 20432098.777 10 0 59215 29700.00000 0 -17244543.120 -1124809.002 18768915.574 10 0 59215 30600.00000 0 -19117132.904 -2260981.696 16741408.458 10 0 59215 31500.00000 0 -20831929.922 -3127154.202 14388871.186 10 0 59215 32400.00000 0 -22328166.447 -3734937.657 11756921.833 10 0 59215 33300.00000 0 -23550654.416 -4107470.682 8896623.305 10 0 59215 34200.00000 0 -24452061.295 -4278189.324 5863496.177 10 0 59215 35100.00000 0 -24994877.832 -4289161.817 2716442.565 10 0 59215 36000.00000 0 -25152994.547 -4189058.895 -483398.202 10 0 59215 36900.00000 0 -24912820.032 -4030845.978 -3673839.681 10 0 59215 37800.00000 0 -24273893.275 -3869295.526 -6792860.644 10 0 59215 38700.00000 0 -23248963.507 -3758425.647 -9779815.563 10 0 59215 39600.00000 0 -21863533.576 -3748974.275 -12576618.913 10 0 59215 40500.00000 0 -20154885.482 -3886016.826 -15128879.650 10 0 59215 41400.00000 0 -18170628.650 -4206829.193 -17386963.259 10 0 59215 42300.00000 0 -15966831.635 -4739087.408 -19306960.204 10 0 59215 43200.00000 0 -13605815.423 -5499481.097 -20851541.786 10 0 59215 44100.00000 0 -11153700.594 -6492800.174 -21990686.755 10 0 59215 45000.00000 0 -8677810.819 -7711534.187 -22702264.628 10 0 59215 45900.00000 0 -6244040.941 -9136002.065 -22972464.672 10 0 59215 46800.00000 0 -3914299.066 -10735007.633 -22796062.509 10 0 59215 47700.00000 0 -1744128.917 -12466994.106 -22176519.423 10 0 59215 48600.00000 0 219389.184 -14281649.830 -21125912.705 10 0 59215 49500.00000 0 1939372.098 -16121898.544 -19664698.481 10 0 59215 50400.00000 0 3390431.139 -17926191.226 -17821311.737 10 0 59215 51300.00000 0 4559479.970 -19631003.859 -15631611.254 10 0 59215 52200.00000 0 5446020.797 -21173436.739 -13138180.191 10 0 59215 53100.00000 0 6061898.338 -22493806.431 -10389495.931 10 0 59215 54000.00000 0 6430533.503 -23538121.808 -7438985.317 10 0 59215 54900.00000 0 6585670.547 -24260340.245 -4343983.753 10 0 59215 55800.00000 0 6569691.877 -24624309.248 -1164618.679 10 0 59215 56700.00000 0 6431572.924 -24605312.003 2037360.587 10 0 59215 57600.00000 0 6224564.581 -24191151.934 5199783.583 10 0 59215 58500.00000 0 6003702.041 -23382730.845 8261266.275 10 0 59215 59400.00000 0 5823246.061 -22194096.442 11162401.770 10 0 59215 60300.00000 0 5734165.334 -20651957.355 13846910.996 10 0 59215 61200.00000 0 5781766.645 -18794686.058 16262730.974 10 0 59215 62100.00000 0 6003573.066 -16670851.385 18363019.934 10 0 59215 63000.00000 0 6427539.866 -14337341.758 20107060.269 10 0 59215 63900.00000 0 7070683.390 -11857157.191 21461042.402 10 0 59215 64800.00000 0 7938180.920 -9296961.479 22398715.128 10 0 59215 65700.00000 0 9022979.715 -6724495.720 22901890.551 10 0 59215 66600.00000 0 10305932.306 -4205959.856 22960794.393 10 0 59215 67500.00000 0 11756453.189 -1803469.939 22574255.305 10 0 59215 68400.00000 0 13333670.521 427304.355 21749729.679 10 0 59215 69300.00000 0 14988025.745 2439224.920 20503161.289 10 0 59215 70200.00000 0 16663255.468 4195407.540 18858678.104 10 0 59215 71100.00000 0 18298673.870 5670510.700 16848131.430 10 0 59215 72000.00000 0 19831661.075 6851538.006 14510485.552 10 0 59215 72900.00000 0 21200254.058 7738121.526 11891068.813 10 0 59215 73800.00000 0 22345731.947 8342274.911 9040699.814 10 0 59215 74700.00000 0 23215087.317 8687627.184 6014705.104 10 0 59215 75600.00000 0 23763279.489 8808170.021 2871846.968 10 0 59215 76500.00000 0 23955174.562 8746571.833 -326818.046 10 0 59215 77400.00000 0 23767089.818 8552130.359 -3519127.450 10 0 59215 78300.00000 0 23187876.596 8278450.945 -6643024.570 10 0 59215 79200.00000 0 22219495.094 7980949.432 -9637769.598 10 0 59215 80100.00000 0 20877055.974 7714286.122 -12445125.692 10 0 59215 81000.00000 0 19188326.185 7529840.270 -15010496.397 10 0 59215 81900.00000 0 17192719.027 7473332.881 -17283991.734 10 0 59215 82800.00000 0 14939810.305 7582699.166 -19221401.714 10 0 59215 83700.00000 0 12487442.330 7886301.447 -20785058.150 10 0 59215 84600.00000 0 9899494.735 8401558.699 -21944567.990 10 0 59215 85500.00000 0 7243415.037 9134051.251 -22677403.962 10 0 59216 0.00000 0 4587611.721 10077138.936 -22969341.353 10 0 59216 900.00000 0 1998818.069 11212109.727 -22814732.681 10 0 59216 1800.00000 0 -460463.902 12508852.115 -22216615.285 10 0 59216 2700.00000 0 -2734333.136 13927025.017 -21186649.850 10 0 59216 3600.00000 0 -4775575.911 15417675.004 -19744891.365 10 0 59216 4500.00000 0 -6547382.020 16925234.209 -17919396.907 10 0 59216 5400.00000 0 -8024620.867 18389814.911 -15745677.924 10 0 59216 6300.00000 0 -9194625.412 19749704.773 -13266007.572 10 0 59216 7200.00000 0 -10057452.600 20943957.916 -10528596.581 10 0 59216 8100.00000 0 -10625610.942 21914972.983 -7586653.681 10 0 59216 9000.00000 0 -10923268.286 22610949.735 -4497348.917 10 0 59216 9900.00000 0 -10984974.540 22988120.722 -1320700.321 10 0 59216 10800.00000 0 -10853954.660 23012664.042 1881594.183 10 0 59216 11700.00000 0 -10580045.140 22662216.566 5047356.602 10 0 59216 12600.00000 0 -10217362.174 21926923.879 8115136.678 10 0 59216 13500.00000 0 -9821800.838 20809982.696 11025404.015 10 0 59216 14400.00000 0 -9448471.552 19327652.844 13721701.248 10 0 59216 15300.00000 0 -9149182.408 17508738.159 16151735.901 10 0 59216 16200.00000 0 -8970073.846 15393557.815 18268390.015 10 0 59216 17100.00000 0 -8949505.432 13032450.700 20030628.520 10 0 59216 18000.00000 0 -9116283.745 10483874.827 21404289.247 10 0 59216 18900.00000 0 -9488305.903 7812180.314 22362740.078 10 0 59216 19800.00000 0 -10071675.867 5085147.702 22887391.175 10 0 59216 20700.00000 0 -10860330.816 2371393.078 22968052.948 10 0 59216 21600.00000 0 -11836193.764 -262253.448 22603133.279 10 0 59216 22500.00000 0 -12969846.656 -2753288.233 21799670.317 10 0 59216 23400.00000 0 -14221696.588 -5045889.227 20573200.080 10 0 59216 24300.00000 0 -15543587.260 -7092989.094 18947461.051 10 0 59216 25200.00000 0 -16880789.132 -8857981.220 16953940.797 10 0 59216 26100.00000 0 -18174285.784 -10315988.445 14631272.636 10 0 59216 27000.00000 0 -19363261.309 -11454642.450 12024493.182 10 0 59216 27900.00000 0 -20387684.855 -12274341.962 9184174.298 10 0 59216 28800.00000 0 -21190883.839 -12787979.484 6165445.713 10 0 59216 29700.00000 0 -21721997.491 -13020148.629 3026926.787 10 0 59216 30600.00000 0 -21938206.964 -13005865.911 -170412.011 10 0 59216 31500.00000 0 -21806647.311 -12788861.376 -3364435.600 10 0 59216 32400.00000 0 -21305919.796 -12419510.853 -6493055.380 10 0 59216 33300.00000 0 -20427139.737 -11952497.817 -9495440.823 10 0 59216 34200.00000 0 -19174474.594 -11444304.443 -12313207.279 10 0 59216 35100.00000 0 -17565148.550 -10950638.741 -14891556.268 10 0 59216 36000.00000 0 -15628912.393 -10523907.318 -17180345.515 10 0 59216 36900.00000 0 -13407000.072 -10210841.363 -19135067.409 10 0 59216 37800.00000 0 -10950614.979 -10050376.822 -20717716.672 10 0 59216 38700.00000 0 -8319008.621 -10071878.841 -21897530.303 10 0 59216 39600.00000 0 -5577231.587 -10293785.845 -22651585.490 10 0 59216 40500.00000 0 -2793650.122 -10722730.798 -22965244.156 10 0 59216 41400.00000 0 -37331.364 -11353176.943 -22832435.754 10 0 59216 42300.00000 0 2624594.337 -12167583.598 -22255773.107 10 0 59216 43200.00000 0 5129484.834 -13137095.207 -21246499.297 10 0 59216 44100.00000 0 7421545.913 -14222724.853 -19824266.738 10 0 59216 45000.00000 0 9453901.869 -15376982.543 -18016752.827 10 0 59216 45900.00000 0 11190291.699 -16545879.891 -15859119.617 10 0 59216 46800.00000 0 12606321.362 -17671226.875 -13393327.942 10 0 59216 47700.00000 0 13690221.015 -18693124.012 -10667319.345 10 0 59216 48600.00000 0 14443077.022 -19552544.878 -7734081.718 10 0 59216 49500.00000 0 14878530.484 -20193900.111 -4650616.886 10 0 59216 50400.00000 0 15021956.433 -20567474.623 -1476830.510 10 0 59216 51300.00000 0 14909159.686 -20631635.116 1725633.872 10 0 59216 52200.00000 0 14584643.656 -20354714.614 4894593.674 10 0 59216 53100.00000 0 14099526.245 -19716494.401 7968535.238 10 0 59216 54000.00000 0 13509191.729 -18709220.697 10887807.288 10 0 59216 54900.00000 0 12870778.443 -17338113.042 13595776.557 10 0 59216 55800.00000 0 12240608.677 -15621342.697 16039923.152 10 0 59216 56700.00000 0 11671669.404 -13589481.563 18172854.697 10 0 59216 57600.00000 0 11211249.993 -11284444.133 19953220.069 10 0 59216 58500.00000 0 10898836.178 -8757966.050 21346505.582 10 0 59216 59400.00000 0 10764348.675 -6069681.918 22325698.916 10 0 59216 60300.00000 0 10826800.207 -3284881.368 22871808.659 10 0 59216 61200.00000 0 11093427.212 -472035.671 22974229.964 10 0 59216 62100.00000 0 11559332.664 2299803.599 22630949.690 10 0 59216 63000.00000 0 12207655.241 4963627.199 21848587.227 10 0 59216 63900.00000 0 13010258.130 7457004.386 20642270.086 10 0 59216 64800.00000 0 13928909.218 9724428.634 19035346.302 10 0 59216 65700.00000 0 14916903.857 11719376.484 17058938.546 10 0 59216 66600.00000 0 15921062.818 13405994.763 14751347.834 10 0 59216 67500.00000 0 16884022.187 14760346.678 12157317.524 10 0 59216 68400.00000 0 17746719.392 15771165.453 9327171.018 10 0 59216 69300.00000 0 18450971.007 16440084.448 6315839.297 10 0 59216 70200.00000 0 18942033.659 16781334.621 3181796.682 10 0 59216 71100.00000 0 19171039.731 16820922.495 -14074.722 10 0 59216 72000.00000 0 19097204.414 16595323.626 -3209669.654 10 0 59216 72900.00000 0 18689710.078 16149747.192 -6342870.063 10 0 59216 73800.00000 0 17929187.306 15536045.468 -9352757.164 10 0 59216 74700.00000 0 16808728.908 14810357.087 -12180800.882 10 0 59216 75600.00000 0 15334392.924 14030584.343 -14772002.959 10 0 59216 76500.00000 0 13525172.158 13253811.759 -17075970.897 10 0 59216 77400.00000 0 11412430.451 12533775.590 -19047901.356 10 0 59216 78300.00000 0 9038828.278 11918491.652 -20649453.672 10 0 59216 79200.00000 0 6456781.780 11448141.985 -21849496.419 10 0 59216 80100.00000 0 3726518.954 11153309.757 -22624712.598 10 0 59216 81000.00000 0 913813.479 11053636.919 -22960051.909 10 0 59216 81900.00000 0 -1912509.988 11156961.195 -22849021.622 10 0 59216 82800.00000 0 -4683195.631 11458968.636 -22293810.650 10 0 59216 83700.00000 0 -7331193.004 11943376.246 -21305244.690 10 0 59216 84600.00000 0 -9794201.261 12582636.790 -19902573.415 10 0 59216 85500.00000 0 -12017015.827 13339135.960 -18113093.966 99